Showing default

EXPRESS 103, 45985

Orbit data source: Space-Track

EXPRESS 103, 45985 is a payload satellite owned by KosSvyaz (CIS) in GEO that was launched on Thu, 30 Jul 2020 UTC via a PROTON-M/BRIZ-M launch vehicle from the Tyuratam Missile And Space Complex (TTMTR). Payload-class satellites include a variety of spacecraft equipped with specific instruments for various scientific and technological missions. These include communications satellites like Starlink; space stations such as the ISS; scientific satellites like the Hubble; Earth observation satellites from companies like Planet Labs, Umbra, and HawkEye 360; GPS; miniature CubeSats for education and research; and military/defense satellites.

Not visible in the next 10 days
Identifier
45985, 2020-053A
Orbit
GEO
Country
Flag of CISCIS
Related business
Manufacturer
Resehetnev ISS
Mission
Operational Commercial Communications
Bus & Motor
EKSPRESS-1000N, AOCS
Mass
2,280 kg wet, ~1,800 kg dry
Launch date (UTC)
2020-07-30 (5 years ago)
Launch vehicle
PROTON-M/BRIZ-M
Launch site
Tyuratam Missile And Space Complex (TTMTR)
Object type
Payload
Rocket body
Debris
Shape & HBR
Box + 2 Pan, Unknown HBR
Radar Cross Section
16.987 m², Large (>1 m²)

Expand to show TLE details & history
Last TLE update: 1 day ago

TLE from 1 day ago
0 EXPRESS 103
1 45985U 20053A   25259.57822568 -.00000300  00000-0  00000-0 0  9991
2 45985   0.0195 199.1032 0000102 284.8667 176.4603  1.00271128 18904
Epoch: 2025-09-16T13:52Z
TLE epoch observation values (Epoch: 2025-09-16T13:52:38.698Z)
Latitude
0.03083°
Longitude
96.50328°
Altitude
35,786.695 km
Speed
3.075 km/s
True Right ascension
20h 01m 43s
True Declination
0° 01' 51"
Sunlit
Object was in daylight at epoch
Visualization orbit readout
Latitude
Unknown
Longitude
Unknown
Altitude
Unknown
Speed
Unknown
Apparent Right ascension
Unknown
Apparent Declination
Unknown
Sunlit
N/A
Visualization observer readout
Local Sidereal Time
15:04:34
Azimuth
Unknown
Elevation
Unknown
Doppler factor
Unknown
Orbital elements
Apogee altitude
35,788.28 km
Perigee altitude
35,787.419 km
Semi-major axis
42,165.987 km
Eccentricity
0.00001
Inclination
0.0195°
RAAN
199.1032°
Arg. of periapsis
284.8667°
True anomaly
176.46037°
Mean anomaly
176.4603°
Eccentric anomaly
176.46034°
Mean motion
0.25067 °/min
Orbital period
1,436.16 mins
BSTAR
0
Loading maneuver chart data...
Computing Atmospheric mass density...
Loading historical data...
Loading historical data...
Loading historical data...
Loading historical data...
Loading historical data...
Loading historical data...
Loading historical data...
Other satellites on launch #53 in the year 2020 (2020-07-30 UTC)

Documentation

Showing up to 5 results
|